Change the Weather History Date:

Monday, February 4, 2013

  Actual Average (KMRF) Record (KMRF)
Temperature  
Mean Temperature 56 °F -  
Max Temperature 68 °F 57 °F 69 °F (1999)
Min Temperature 43 °F 27 °F 1 °F (2011)
Degree Days  
Heating Degree Days 9    
Growing Degree Days 6 (Base 50)    
Moisture  
Dew Point 29 °F    
Average Humidity 35    
Maximum Humidity 52    
Minimum Humidity 25    
Precipitation  
Precipitation 0.00 in - - ()
Sea Level Pressure  
Sea Level Pressure 30.06 in    
Wind  
Wind Speed 10 mph (SW)    
Max Wind Speed 25 mph    
Max Gust Speed 38 mph    
Visibility 10 miles    
Events      
Averages and records for this station are not official NWS values.
T = Trace of Precipitation, MM = Missing Value Source: NWS Daily Summary

Daily Weather History Graph

Daily Weather History Graph

Search for Another Location

Airport or City:

Trip Planner

Search our weather history database for the weather conditions in past years. The results will help you decide how hot, cold, wet, or windy it might be!

Date:

Astronomy

Feb. 04, 2013 Rise Set
Actual Time 7:43 AM CST 6:34 PM CST
Civil Twilight 7:18 AM CST 6:59 PM CST
Nautical Twilight 6:49 AM CST 7:27 PM CST
Astronomical Twilight 6:21 AM CST 7:56 PM CST
Moon 2:16 AM CST (2/4) 1:05 PM CST (2/4)
Length of Visible Light 11h 40m
Length of Day
10h 50m
Last Quarter, 37% of the Moon is Illuminated
Feb 4
Last Quarter
Feb 10
New
Feb 17
First Quarter
Feb 25
Full
Mar 4
Last Quarter

Hourly Weather History & Observations

Time (CST) Temp. Windchill Dew Point Humidity Pressure Visibility Wind Dir Wind Speed Gust Speed Precip Events Conditions
12:15 AM 54.5 °F - 27.3 °F 35% 30.07 in 10.0 mi SW 9.2 mph - N/A   Overcast
12:35 AM 54.5 °F - 27.7 °F 36% 30.07 in 10.0 mi SW 10.4 mph - N/A   Overcast
12:55 AM 55.6 °F - 27.1 °F 34% 30.07 in 10.0 mi SW 6.9 mph - N/A   Overcast
1:15 AM 54.3 °F - 29.8 °F 39% 30.06 in 10.0 mi South 3.5 mph - N/A   Overcast
1:35 AM 52.9 °F - 30.9 °F 43% 30.06 in 10.0 mi South 8.1 mph - N/A   Overcast
1:55 AM 53.2 °F - 29.8 °F 41% 30.05 in 10.0 mi South 10.4 mph - N/A   Mostly Cloudy
2:15 AM 53.6 °F - 29.3 °F 39% 30.04 in 10.0 mi South 11.5 mph - N/A   Mostly Cloudy
2:35 AM 54.1 °F - 29.7 °F 39% 30.04 in 10.0 mi SW 8.1 mph - N/A   Overcast
2:55 AM 53.2 °F - 29.8 °F 41% 30.03 in 10.0 mi SSW 10.4 mph - N/A   Mostly Cloudy
3:15 AM 52.7 °F - 29.1 °F 40% 30.03 in 10.0 mi SSW 10.4 mph - N/A   Scattered Clouds
4:55 AM 46.9 °F - 28.0 °F 48% 30.03 in 10.0 mi Calm Calm - N/A   Clear
5:15 AM 47.5 °F - 28.9 °F 49% 30.03 in 10.0 mi East 3.5 mph - N/A   Clear
5:35 AM 48.6 °F - 28.9 °F 47% 30.03 in 10.0 mi South 3.5 mph - N/A   Clear
5:55 AM 47.8 °F - 28.2 °F 47% 30.03 in 10.0 mi South 8.1 mph - N/A   Clear
6:15 AM 47.1 °F - 28.0 °F 48% 30.02 in 10.0 mi East 6.9 mph - N/A   Clear
6:55 AM 49.8 °F - 27.5 °F 42% 30.03 in 10.0 mi WSW 8.1 mph - N/A   Clear
7:15 AM 51.4 °F - 26.8 °F 38% 30.04 in 10.0 mi WSW 11.5 mph 16.1 mph N/A   Clear
7:35 AM 52.2 °F - 25.7 °F 36% 30.04 in 10.0 mi SW 11.5 mph 18.4 mph N/A   Clear
7:55 AM 52.3 °F - 24.6 °F 34% 30.04 in 10.0 mi SW 15.0 mph 20.7 mph N/A   Clear
8:15 AM 54.7 °F - 24.4 °F 31% 30.06 in 10.0 mi WSW 6.9 mph - N/A   Clear
8:35 AM 56.8 °F - 25.5 °F 30% 30.06 in 10.0 mi SSE 4.6 mph - N/A   Clear
8:55 AM 57.9 °F - 25.9 °F 29% 30.06 in 10.0 mi West 10.4 mph 18.4 mph N/A   Clear
9:15 AM 60.6 °F - 28.2 °F 29% 30.07 in 10.0 mi West 18.4 mph 23.0 mph N/A   Clear
9:55 AM 62.1 °F - 27.7 °F 27% 30.08 in 10.0 mi West 19.6 mph 32.2 mph N/A   Clear
10:15 AM 62.4 °F - 27.5 °F 27% 30.09 in 10.0 mi West 18.4 mph 26.5 mph N/A   Clear
10:35 AM 62.8 °F - 28.0 °F 27% 30.10 in 10.0 mi West 17.3 mph 23.0 mph N/A   Clear
10:55 AM 63.3 °F - 28.6 °F 27% 30.11 in 10.0 mi West 15.0 mph 23.0 mph N/A   Clear
11:15 AM 63.7 °F - 29.7 °F 28% 30.10 in 10.0 mi WNW 16.1 mph 21.9 mph N/A   Clear
11:35 AM 64.2 °F - 30.4 °F 28% 30.09 in 10.0 mi West 12.7 mph 23.0 mph N/A   Clear
11:55 AM 64.8 °F - 30.7 °F 28% 30.09 in 10.0 mi WNW 15.0 mph 21.9 mph N/A   Clear
12:15 PM 65.8 °F - 31.5 °F 28% 30.08 in 10.0 mi West 12.7 mph 29.9 mph N/A   Clear
12:35 PM 65.5 °F - 31.6 °F 28% 30.08 in 10.0 mi West 15.0 mph 24.2 mph N/A   Clear
12:55 PM 66.2 °F - 31.6 °F 28% 30.07 in 10.0 mi WNW 9.2 mph 21.9 mph N/A   Scattered Clouds
1:15 PM 65.7 °F - 31.3 °F 28% 30.06 in 10.0 mi WNW 11.5 mph 17.3 mph N/A   Scattered Clouds
1:35 PM 66.6 °F - 31.5 °F 27% 30.04 in 10.0 mi SW 15.0 mph 20.7 mph N/A   Scattered Clouds
1:55 PM 66.9 °F - 31.6 °F 27% 30.04 in 10.0 mi SW 19.6 mph 25.3 mph N/A   Scattered Clouds
2:15 PM 67.8 °F - 31.5 °F 26% 30.02 in 10.0 mi SW 23.0 mph 29.9 mph N/A   Scattered Clouds
2:35 PM 68.4 °F - 31.3 °F 25% 30.02 in 10.0 mi WSW 25.3 mph - N/A   Clear
2:55 PM 68.0 °F - 30.6 °F 25% 30.02 in 10.0 mi West 20.7 mph 38.0 mph N/A   Clear
3:15 PM 67.5 °F - 30.0 °F 25% 30.02 in 10.0 mi West 13.8 mph 28.8 mph N/A   Clear
3:35 PM 66.9 °F - 30.2 °F 25% 30.02 in 10.0 mi West 18.4 mph 28.8 mph N/A   Clear
3:55 PM 66.2 °F - 30.0 °F 26% 30.02 in 10.0 mi WSW 17.3 mph 25.3 mph N/A   Clear
4:15 PM 66.0 °F - 30.2 °F 26% 30.02 in 10.0 mi West 15.0 mph 27.6 mph N/A   Clear
4:35 PM 65.8 °F - 30.0 °F 26% 30.03 in 10.0 mi WSW 13.8 mph 19.6 mph N/A   Clear
4:55 PM 64.6 °F - 30.0 °F 27% 30.03 in 10.0 mi West 11.5 mph - N/A   Clear
5:15 PM 63.9 °F - 30.7 °F 29% 30.04 in 10.0 mi WSW 9.2 mph - N/A   Clear
5:35 PM 63.7 °F - 30.7 °F 29% 30.04 in 10.0 mi WSW 11.5 mph - N/A   Clear
5:55 PM 62.8 °F - 30.0 °F 29% 30.04 in 10.0 mi SW 12.7 mph 20.7 mph N/A   Clear
6:15 PM 61.7 °F - 30.2 °F 30% 30.04 in 10.0 mi WSW 10.4 mph - N/A   Clear
6:35 PM 60.6 °F - 30.9 °F 33% 30.05 in 10.0 mi WSW 11.5 mph - N/A   Clear
6:55 PM 60.1 °F - 31.1 °F 33% 30.05 in 10.0 mi WSW 8.1 mph - N/A   Clear
7:15 PM 59.7 °F - 31.1 °F 34% 30.06 in 10.0 mi WSW 8.1 mph - N/A   Clear
7:35 PM 59.5 °F - 30.7 °F 34% 30.06 in 10.0 mi WSW 8.1 mph - N/A   Clear
7:55 PM 59.0 °F - 30.9 °F 35% 30.06 in 10.0 mi WSW 6.9 mph - N/A   Clear
8:15 PM 57.4 °F - 30.9 °F 37% 30.07 in 10.0 mi West 8.1 mph - N/A   Clear
8:35 PM 55.2 °F - 30.0 °F 38% 30.08 in 10.0 mi East 3.5 mph - N/A   Clear
8:55 PM 54.3 °F - 26.6 °F 34% 30.08 in 10.0 mi ENE 5.8 mph - N/A   Clear
9:15 PM 53.1 °F - 25.3 °F 34% 30.09 in 10.0 mi Calm Calm - N/A   Clear
9:35 PM 48.6 °F - 25.5 °F 41% 30.10 in 10.0 mi SSW 5.8 mph - N/A   Clear
9:55 PM 46.8 °F - 26.1 °F 44% 30.10 in 10.0 mi South 5.8 mph - N/A   Clear
10:15 PM 47.1 °F - 26.6 °F 45% 30.11 in 10.0 mi South 5.8 mph - N/A   Clear
10:35 PM 47.5 °F - 26.4 °F 44% 30.10 in 10.0 mi Calm Calm - N/A   Clear
10:55 PM 44.8 °F 42.4 °F 26.2 °F 48% 30.10 in 10.0 mi SW 4.6 mph - N/A   Clear
11:15 PM 44.8 °F 41.6 °F 26.2 °F 48% 30.10 in 10.0 mi SSW 5.8 mph - N/A   Clear
11:35 PM 44.1 °F 41.5 °F 27.0 °F 51% 30.10 in 10.0 mi South 4.6 mph - N/A   Clear
11:55 PM 43.9 °F 39.3 °F 27.1 °F 52% 30.10 in 10.0 mi SW 8.1 mph - N/A   Clear